Date String (YYYY-MM-DD hh:mm:ss) UTC,Instrument flags,Ambient pressure (hPa),Sample flow (lpm),Bypass flow (lpm),Sample temperature (°C),Ambient temperature (°C),ASC tube jacket temperature (°C),LED temperature (°C),Box temperature (°C),Sample RH (%),Span deviation,Mass concentration (μg/m³),Mass concentration (μg/m³),Mass concentration (μg/m³)
DateTimeUTC,F1_M11,P_M11,Q1_M11,Q2_M11,T1_M11,T2_M11,T3_M11,T4_M11,T5_M11,U1_M11,ZSPAN_M11,X2_M11,X0_M11,X1_M11
2021-12-23 19:00:00,,0815.3,5.00,0.00,26.2,25.4,00.0,35.3,28.0,13.6,0000.0,0000.90,0002.58,0000.62
2021-12-23 19:01:00,,0815.3,5.00,0.00,26.3,25.4,00.0,35.3,28.0,13.6,0000.0,0000.89,0002.54,0000.61
2021-12-23 19:02:00,,0815.4,5.02,0.00,26.2,25.4,00.0,35.3,28.0,13.6,0000.0,0000.88,0002.28,0000.62
2021-12-23 19:03:00,,0815.4,5.01,0.00,26.2,25.4,00.0,35.3,28.0,13.6,0000.0,0000.88,0001.79,0000.63
2021-12-23 19:04:00,,0815.4,4.99,0.00,26.2,25.4,00.0,35.3,28.0,13.6,0000.0,0000.85,0001.49,0000.63
2021-12-23 19:05:00,,0815.3,5.01,0.00,26.2,25.4,00.0,35.3,28.0,13.6,0000.0,0000.85,0001.27,0000.62
2021-12-23 19:06:00,,0815.3,5.00,0.00,26.2,25.4,00.0,35.3,28.0,13.6,0000.0,0000.88,0001.32,0000.62
2021-12-23 19:07:00,,0815.4,5.00,0.00,26.2,25.4,00.0,35.3,28.0,13.6,0000.0,0000.86,0001.29,0000.61
2021-12-23 19:08:00,,0815.3,5.00,0.00,26.2,25.4,00.0,35.3,27.9,13.6,0000.0,0000.83,0001.23,0000.61
2021-12-23 19:09:00,,0815.3,5.00,0.00,26.2,25.4,00.0,35.3,27.9,13.6,0000.0,0000.80,0001.15,0000.60
2021-12-23 19:10:00,,0815.2,5.00,0.00,26.2,25.4,00.0,35.3,28.0,13.6,0000.0,0000.83,0001.49,0000.59
2021-12-23 19:11:00,,0815.1,5.00,0.00,26.2,25.4,00.0,35.3,28.0,13.6,0000.0,0000.81,0001.68,0000.58
2021-12-23 19:12:00,,0815.3,5.01,0.00,26.2,25.4,00.0,35.3,28.0,13.6,0000.0,0000.82,0001.72,0000.56
2021-12-23 19:13:00,,0815.2,4.98,0.00,26.2,25.4,00.0,35.3,28.0,13.6,0000.0,0000.82,0001.77,0000.55
2021-12-23 19:14:00,,0815.2,4.99,0.00,26.2,25.4,00.0,35.3,28.0,13.6,0000.0,0000.81,0001.76,0000.52
2021-12-23 19:15:00,,0815.2,5.01,0.00,26.2,25.4,00.0,35.3,28.0,13.6,0000.0,0000.85,0001.89,0000.51
2021-12-23 19:16:00,,0815.2,4.99,0.00,26.2,25.4,00.0,35.3,28.0,13.6,0000.0,0000.85,0001.93,0000.49
2021-12-23 19:17:00,,0815.3,5.00,0.00,26.2,25.4,00.0,35.3,28.0,13.6,0000.0,0000.83,0001.89,0000.48
2021-12-23 19:18:00,,0815.3,5.02,0.00,26.2,25.4,00.0,35.3,28.0,13.6,0000.0,0000.83,0001.90,0000.47
2021-12-23 19:19:00,,0815.2,5.00,0.00,26.2,25.4,00.0,35.3,28.0,13.6,0000.0,0000.81,0001.89,0000.46
2021-12-23 19:20:00,,0815.2,5.00,0.00,26.2,25.4,00.0,35.3,28.0,13.6,0000.0,0000.80,0001.90,0000.45
2021-12-23 19:21:00,,0815.1,4.99,0.00,26.2,25.3,00.0,35.3,28.0,13.6,0000.0,0000.76,0001.64,0000.44
2021-12-23 19:22:00,,0815.1,4.99,0.00,26.2,25.3,00.0,35.3,28.0,13.6,0000.0,0000.75,0001.44,0000.43
2021-12-23 19:23:00,,0815.1,5.00,0.00,26.2,25.3,00.0,35.3,28.0,13.6,0000.0,0000.72,0001.43,0000.42
2021-12-23 19:24:00,,0815.2,5.00,0.00,26.2,25.4,00.0,35.3,27.9,13.6,0000.0,0000.68,0001.33,0000.40
2021-12-23 19:25:00,,0815.1,5.00,0.00,26.2,25.4,00.0,35.2,27.9,13.6,0000.0,0000.65,0001.30,0000.39
2021-12-23 19:26:00,,0815.1,5.01,0.00,26.2,25.4,00.0,35.2,27.9,13.6,0000.0,0000.58,0001.14,0000.38
2021-12-23 19:27:00,,0815.1,5.01,0.00,26.2,25.4,00.0,35.2,27.9,13.6,0000.0,0000.56,0001.11,0000.38
2021-12-23 19:28:00,,0815.1,5.00,0.00,26.2,25.4,00.0,35.3,27.9,13.6,0000.0,0000.58,0001.15,0000.38
2021-12-23 19:29:00,,0814.9,5.00,0.00,26.2,25.4,00.0,35.3,28.0,13.5,0000.0,0000.58,0001.18,0000.38
2021-12-23 19:30:00,,0815.1,5.01,0.00,26.2,25.5,00.0,35.3,28.0,13.5,0000.0,0000.58,0001.18,0000.37
2021-12-23 19:31:00,,0815.1,4.99,0.00,26.2,25.5,00.0,35.3,28.1,13.5,0000.0,0000.57,0001.17,0000.37
2021-12-23 19:32:00,,0815.0,5.01,0.00,26.3,25.5,00.0,35.3,28.1,13.4,0000.0,0000.59,0001.42,0000.36
2021-12-23 19:33:00,,0814.9,4.99,0.00,26.3,25.5,00.0,35.3,28.1,13.4,0000.0,0000.57,0002.28,0000.35
2021-12-23 19:34:00,,0815.0,5.00,0.00,26.3,25.5,00.0,35.3,28.1,13.4,0000.0,0000.57,0002.20,0000.35
2021-12-23 19:35:00,,0814.9,5.02,0.00,26.3,25.5,00.0,35.3,28.1,13.4,0000.0,0000.59,0002.25,0000.36
2021-12-23 19:36:00,,0815.0,4.99,0.00,26.3,25.5,00.0,35.3,28.1,13.4,0000.0,0000.61,0002.39,0000.36
2021-12-23 19:37:00,,0814.9,5.01,0.00,26.3,25.6,00.0,35.3,28.1,13.4,0000.0,0000.63,0002.63,0000.36
2021-12-23 19:38:00,,0814.9,4.98,0.00,26.3,25.6,00.0,35.3,28.1,13.3,0000.0,0000.61,0002.58,0000.36
2021-12-23 19:39:00,,0814.9,5.01,0.00,26.3,25.6,00.0,35.3,28.1,13.3,0000.0,0000.60,0002.58,0000.34
2021-12-23 19:40:00,,0815.0,5.00,0.00,26.3,25.6,00.0,35.3,28.1,13.3,0000.0,0000.57,0002.52,0000.34
2021-12-23 19:41:00,,0814.9,4.99,0.00,26.3,25.5,00.0,35.3,28.1,13.3,0000.0,0000.58,0002.58,0000.34
2021-12-23 19:42:00,,0814.9,5.01,0.00,26.3,25.5,00.0,35.3,28.1,13.3,0000.0,0000.61,0002.69,0000.35
2021-12-23 19:43:00,,0814.9,4.99,0.00,26.3,25.5,00.0,35.3,28.1,13.3,0000.0,0000.60,0003.30,0000.35
2021-12-23 19:44:00,,0814.9,5.00,0.00,26.3,25.5,00.0,35.3,28.1,13.2,0000.0,0000.62,0002.71,0000.37
2021-12-23 19:45:00,,0814.9,5.00,0.00,26.3,25.5,00.0,35.3,28.1,13.2,0000.0,0000.60,0002.52,0000.36
2021-12-23 19:46:00,,0815.1,4.99,0.00,26.3,25.5,00.0,35.3,28.1,13.3,0000.0,0000.60,0002.61,0000.36
2021-12-23 19:47:00,,0815.1,5.01,0.00,26.3,25.5,00.0,35.3,28.1,13.3,0000.0,0000.60,0002.61,0000.36
2021-12-23 19:48:00,,0815.0,4.99,0.00,26.3,25.4,00.0,35.3,28.1,13.2,0000.0,0000.57,0002.34,0000.36
2021-12-23 19:49:00,,0814.9,5.01,0.00,26.3,25.4,00.0,35.3,28.1,13.2,0000.0,0000.54,0002.23,0000.35
2021-12-23 19:50:00,,0815.1,4.99,0.00,26.3,25.4,00.0,35.3,28.1,13.2,0000.0,0000.53,0002.20,0000.35
2021-12-23 19:51:00,,0814.9,5.00,0.00,26.3,25.4,00.0,35.3,28.1,13.2,0000.0,0000.53,0002.19,0000.35
2021-12-23 19:52:00,,0814.9,5.00,0.00,26.3,25.4,00.0,35.3,28.1,13.2,0000.0,0000.52,0002.14,0000.35
2021-12-23 19:53:00,,0814.9,4.99,0.00,26.3,25.4,00.0,35.3,28.1,13.2,0000.0,0000.50,0002.11,0000.35
2021-12-23 19:54:00,,0814.8,5.01,0.00,26.3,25.4,00.0,35.3,28.0,13.2,0000.0,0000.49,0001.70,0000.34
2021-12-23 19:55:00,,0814.8,5.00,0.00,26.3,25.3,00.0,35.3,28.0,13.1,0000.0,0000.48,0000.96,0000.33
2021-12-23 19:56:00,,0814.8,5.01,0.00,26.3,25.4,00.0,35.3,28.0,13.0,0000.0,0000.48,0000.95,0000.33
2021-12-23 19:57:00,,0814.8,4.99,0.00,26.3,25.4,00.0,35.3,28.0,13.0,0000.0,0000.48,0000.89,0000.33
2021-12-23 19:58:00,,0815.0,5.01,0.00,26.3,25.4,00.0,35.3,28.0,13.1,0000.0,0000.46,0000.74,0000.33
2021-12-23 19:59:00,,0814.7,4.98,0.00,26.3,25.4,00.0,35.3,28.0,13.1,0000.0,0000.49,0000.80,0000.33
